Overview Statistics Trail Chart Weather Telemetry Raw packets
 

This is the latest recevied weather packets stored in our database for station/object HP1COO-13. If no packets are shown the sender has not sent any weather packets the latest 10 day(s).

<< 34 35 36 37 38 39 40 >>
Time Temp. Humidity Pressure Rain* Wind** Luminosity Snow
1788102355 29.44° C 77% 1009.7 hPa 0 mm - - -
1788101722 29.44° C 79% 1009.5 hPa 0 mm - - -
1788101089 28.89° C 81% 1009.4 hPa 0 mm - - -
1788100456 28.89° C 80% 1009.2 hPa 0 mm - - -
1788099823 28.89° C 82% 1009.2 hPa 0 mm - - -
1788099190 28.33° C 81% 1008.9 hPa 0 mm - - -
1788098557 27.78° C 83% 1008.9 hPa 0 mm - - -
1788097924 27.78° C 84% 1008.9 hPa 0 mm - - -
1788097291 26.67° C 86% 1009.2 hPa 0 mm - - -
1788096571 26.67° C 85% 1009.2 hPa 0 mm - - -
1788096451 26.11° C 84% 1009.3 hPa 0 mm - - -
1788096255 26.11° C 85% 1009 hPa 0 mm - - -
1788095622 25.56° C 86% 1009.3 hPa 0 mm - - -
1788094989 25° C 87% 1009 hPa 0 mm - - -
1788094356 24.44° C 87% 1008.6 hPa 0 mm - - -
1788093723 24.44° C 88% 1008.4 hPa 0 mm - - -
1788093090 24.44° C 89% 1008.3 hPa 0 mm - - -
1788093087 24.44° C 89% 1008.7 hPa 0 mm - - -
1788092457 23.89° C 90% 1008.6 hPa 0 mm - - -
1788091824 23.89° C 90% 1008.4 hPa 0.76 mm - - -
1788091191 23.89° C 90% 1007.9 hPa 3.05 mm - - -
1788090558 24.44° C 84% 1007.5 hPa 3.05 mm - - -
1788089925 24.44° C 83% 1008 hPa 3.05 mm - - -
1788089292 24.44° C 87% 1007.9 hPa 3.05 mm - - -
1788088659 24.44° C 86% 1007.9 hPa 3.05 mm - - -

* Rain latest hour (hover to see other rain measurements)
** Current wind speed in m/s (hover to see current wind gust speed)